User: anonymous   Login
Location: Unspecified
(0.0000°N, 0.0000°E)
Time: 20:31:58
(UTC+02:00)
Language:

ARIANE DEB (SPELDA) - Orbit

View from above orbital plane
View from above orbital plane
View from above satellite
View from above satellite

Ground track
Ground track

The orbit data is extracted from the following two-line orbital elements,

1 27402U 02015D   17202.94880981 +.00001066 +00000-0 +96580-3 0  9996
2 27402 003.5958 095.7679 7094832 005.7631 359.3780 02.49126703134956
Epoch (UTC): 21 July 2017 22:46:17
Eccentricity: 0.7094832
inclination: 3.5958°
perigee height: 299 km
apogee height: 32915 km
right ascension of ascending node: 95.7679°
argument of perigee: 5.7631°
revolutions per day: 2.49126703
mean anomaly at epoch: 359.3780°
orbit number at epoch: 13495

The dashed part of the orbit path shows where the satellite is in the earth's shadow,  

DLR